STARLINK-31968, 59927

Orbit data source: Space-Track

STARLINK-31968, 59927 is a payload satellite owned by SpaceX/Seattle (US) in LEO that was launched on Sat, 01 Jun 2024 UTC via an FALCON 9 launch vehicle from the Air Force Eastern Test Range (AFETR). Payload-class satellites include a variety of spacecraft equipped with specific instruments for various scientific and technological missions. These include communications satellites like Starlink; space stations such as the ISS; scientific satellites like the Hubble; Earth observation satellites from companies like Planet Labs, Umbra, and HawkEye 360; GPS; miniature CubeSats for education and research; and military/defense satellites.

Loading next visibility...
Identifier
59927, 2024-106F
Orbit
LEO
Country
Flag of USUS
Related business
Manufacturer
SpaceX/Seattle
Mission
Operational Commercial Communications
Bus & Motor
STARLINK V2M, Unknown motor
Mass
730 kg wet, ~700 kg dry
Launch date (UTC)
2024-06-01 (2 years ago)
Launch vehicle
FALCON 9
Launch site
Air Force Eastern Test Range (AFETR)
Object type
Payload
Rocket body
Debris
Shape & HBR
Box + 2 Pan, 17.7 m
Radar Cross Section
33.884 m², Large (>1 m²)

Expand to show TLE details & history
Last TLE update: 5 hours ago

TLE from 5 hours ago
0 STARLINK-31968
1 59927U 24106F   25355.47232162  .00003382  00000-0  13232-3 0  9992
2 59927  42.9985  53.9873 0001013 264.5795  95.4941 15.27585004 88611
Epoch: 2025-12-21T11:20Z
TLE epoch observation values (Epoch: 2025-12-21T11:20:08.587Z)
Latitude
-0.00005°
Longitude
153.66719°
Altitude
482.876 km
Speed
7.626 km/s
True Right ascension
03h 35m 56s
True Declination
0° 00' 00"
Sunlit
Object was in full shadow at epoch
Visualization orbit readout
Latitude
Unknown
Longitude
Unknown
Altitude
Unknown
Speed
Unknown
Apparent Right ascension
Unknown
Apparent Declination
Unknown
Sunlit
N/A
Visualization observer readout
Local Sidereal Time
15:17:41
Azimuth
Unknown
Elevation
Unknown
Doppler factor
Unknown
Orbital elements
Apogee altitude
485.675 km
Perigee altitude
484.284 km
Semi-major axis
6,863.117 km
Eccentricity
0.0001
Inclination
42.9985°
RAAN
53.9873°
Arg. of periapsis
264.5795°
True anomaly
95.50565°
Mean anomaly
95.4941°
Eccentric anomaly
95.49988°
Mean motion
3.81734 °/min
Orbital period
94.31 mins
BSTAR
0.00013232
Loading maneuver chart data...
Computing Atmospheric mass density...
Loading historical data...
Loading historical data...
Loading historical data...
Loading historical data...
Loading historical data...
Loading historical data...
Loading historical data...

Documentation

Showing up to 5 results
|